York, NE

9:16 AM CST on December 15, 2017 (GMT -0600)
York Municipal

Weather History for KJYR - October, 2012

Change the Weather History Date:

Tuesday, October 9, 2012

  Actual Average Record
Temperature  
Mean Temperature 44 °F -  
Max Temperature 57 °F 65 °F 89 °F (1980)
Min Temperature 32 °F 40 °F 25 °F (1964)
Degree Days  
Heating Degree Days 20    
Moisture  
Dew Point 28 °F    
Average Humidity 50    
Maximum Humidity 81    
Minimum Humidity 23    
Precipitation  
Precipitation 0.00 in - - ()
Sea Level Pressure  
Sea Level Pressure 29.98 in    
Wind  
Wind Speed 10 mph (NNW)    
Max Wind Speed 25 mph    
Max Gust Speed 44 mph    
Visibility 10 miles    
Events      
Averages and records for this station are not official NWS values.
T = Trace of Precipitation, MM = Missing Value Source: NWS Daily Summary

Daily Weather History Graph

Daily Weather History Graph

Search for Another Location

Airport or City:

Trip Planner

Search our weather history database for the weather conditions in past years. The results will help you decide how hot, cold, wet, or windy it might be!

Date:

Astronomy

Oct. 09, 2012 Rise Set
Actual Time 7:35 AM CDT 6:58 PM CDT
Civil Twilight 7:08 AM CDT 7:26 PM CDT
Nautical Twilight 6:36 AM CDT 7:57 PM CDT
Astronomical Twilight 6:04 AM CDT 8:29 PM CDT
Moon 1:11 AM CDT (10/9) 3:29 PM CDT (10/9)
Length of Visible Light 12h 17m
Length of Day
11h 22m
Last Quarter, 36% of the Moon is Illuminated
Oct 9
Last Quarter
Oct 15
New
Oct 21
First Quarter
Oct 29
Full
Nov 6
Last Quarter

Hourly Weather History & Observations

Time (CDT) Temp. Windchill Dew Point Humidity Pressure Visibility Wind Dir Wind Speed Gust Speed Precip Events Conditions
12:15 AM 51.8 °F - 26.6 °F 38% 29.83 in 10.0 mi WNW 8.1 mph - N/A   Clear
12:35 AM 50.0 °F - 24.8 °F 37% 29.83 in 10.0 mi WNW 6.9 mph - N/A   Clear
12:55 AM 50.0 °F - 28.4 °F 43% 29.84 in 10.0 mi NW 4.6 mph - N/A   Clear
1:15 AM 46.4 °F 43.5 °F 26.6 °F 46% 29.84 in 10.0 mi West 5.8 mph - N/A   Clear
1:55 AM 48.2 °F - 32.0 °F 54% 29.84 in 10.0 mi NNE 4.6 mph - N/A   Clear
2:15 AM 48.2 °F - 33.8 °F 58% 29.84 in 10.0 mi North 3.5 mph - N/A   Clear
2:55 AM 44.6 °F - 32.0 °F 61% 29.84 in 10.0 mi Calm Calm - N/A   Clear
3:15 AM 48.2 °F - 33.8 °F 58% 29.83 in 10.0 mi SSE 3.5 mph - N/A   Clear
3:35 AM 46.4 °F 45.2 °F 33.8 °F 62% 29.82 in 10.0 mi SSE 3.5 mph - N/A   Clear
3:55 AM 44.6 °F - 32.0 °F 61% 29.82 in 10.0 mi Calm Calm - N/A   Clear
4:15 AM 39.2 °F - 30.2 °F 70% 29.82 in 10.0 mi Calm Calm - N/A   Clear
4:35 AM 37.4 °F 32.8 °F 30.2 °F 75% 29.82 in 10.0 mi NW 5.8 mph - N/A   Clear
4:55 AM 37.4 °F 32.1 °F 32.0 °F 81% 29.82 in 10.0 mi NNW 6.9 mph - N/A   Clear
5:15 AM 39.2 °F 35.0 °F 32.0 °F 75% 29.83 in 10.0 mi NW 5.8 mph - N/A   Clear
5:35 AM 39.2 °F 34.2 °F 32.0 °F 75% 29.84 in 10.0 mi WNW 6.9 mph - N/A   Clear
5:55 AM 39.2 °F 35.9 °F 32.0 °F 75% 29.85 in 10.0 mi NNW 4.6 mph - N/A   Clear
6:15 AM 44.6 °F 40.7 °F 37.4 °F 76% 29.86 in 10.0 mi North 6.9 mph - N/A   Clear
6:35 AM 44.6 °F 40.2 °F 37.4 °F 76% 29.86 in 10.0 mi North 8.1 mph - N/A   Clear
6:55 AM 44.6 °F 40.2 °F 37.4 °F 76% 29.85 in 10.0 mi North 8.1 mph - N/A   Clear
7:15 AM 46.4 °F 41.5 °F 39.2 °F 76% 29.86 in 10.0 mi North 10.4 mph - N/A   Partly Cloudy
7:35 AM 48.2 °F - 41.0 °F 76% 29.87 in 10.0 mi North 13.8 mph 17.3 mph N/A   Clear
7:55 AM 48.2 °F - 41.0 °F 76% 29.88 in 10.0 mi North 13.8 mph 19.6 mph N/A   Clear
8:15 AM 48.2 °F - 41.0 °F 76% 29.89 in 10.0 mi North 16.1 mph 19.6 mph N/A   Clear
8:35 AM 48.2 °F - 41.0 °F 76% 29.90 in 10.0 mi North 15.0 mph 24.2 mph N/A   Clear
8:55 AM 50.0 °F - 41.0 °F 71% 29.90 in 10.0 mi North 16.1 mph 24.2 mph N/A   Clear
9:15 AM 50.0 °F - 41.0 °F 71% 29.92 in 10.0 mi North 19.6 mph 31.1 mph N/A   Clear
9:35 AM 50.0 °F - 41.0 °F 71% 29.92 in 10.0 mi North 21.9 mph 36.8 mph N/A   Clear
9:55 AM 50.0 °F - 39.2 °F 66% 29.94 in 10.0 mi North 21.9 mph 33.4 mph N/A   Clear
10:15 AM 50.0 °F - 39.2 °F 66% 29.96 in 10.0 mi North 20.7 mph 32.2 mph N/A   Clear
10:35 AM 50.0 °F - 37.4 °F 62% 29.97 in 10.0 mi North 25.3 mph 33.4 mph N/A   Clear
10:55 AM 51.8 °F - 37.4 °F 58% 29.99 in 10.0 mi North 20.7 mph 36.8 mph N/A   Clear
11:15 AM 50.0 °F - 37.4 °F 62% 30.00 in 10.0 mi North 23.0 mph 43.7 mph N/A   Scattered Clouds
11:35 AM 50.0 °F - 37.4 °F 62% 30.01 in 10.0 mi North 21.9 mph 34.5 mph N/A   Partly Cloudy
11:55 AM 50.0 °F - 33.8 °F 54% 30.01 in 10.0 mi North 16.1 mph 27.6 mph N/A   Partly Cloudy
12:15 PM 50.0 °F - 32.0 °F 50% 30.01 in 10.0 mi North 16.1 mph 20.7 mph N/A   Clear
12:35 PM 53.6 °F - 32.0 °F 44% 30.00 in 10.0 mi North 18.4 mph 32.2 mph N/A   Clear
12:55 PM 53.6 °F - 28.4 °F 38% 30.00 in 10.0 mi North 20.7 mph 34.5 mph N/A   Clear
1:15 PM 55.4 °F - 26.6 °F 33% 30.01 in 10.0 mi NNW 13.8 mph 29.9 mph N/A   Scattered Clouds
1:35 PM 53.6 °F - 24.8 °F 33% 30.01 in 10.0 mi North 12.7 mph 23.0 mph N/A   Mostly Cloudy
1:55 PM 53.6 °F - 21.2 °F 28% 30.01 in 10.0 mi North 13.8 mph 24.2 mph N/A   Overcast
2:15 PM 53.6 °F - 19.4 °F 26% 30.01 in 10.0 mi North 15.0 mph 26.5 mph N/A   Scattered Clouds
2:35 PM 53.6 °F - 19.4 °F 26% 30.01 in 10.0 mi North 13.8 mph 28.8 mph N/A   Clear
2:55 PM 53.6 °F - 19.4 °F 26% 30.01 in 10.0 mi North 12.7 mph 20.7 mph N/A   Clear
3:15 PM 53.6 °F - 21.2 °F 28% 30.02 in 10.0 mi NNW 13.8 mph 20.7 mph N/A   Clear
3:35 PM 55.4 °F - 19.4 °F 25% 30.02 in 10.0 mi NNW 16.1 mph 24.2 mph N/A   Clear
3:55 PM 53.6 °F - 19.4 °F 26% 30.02 in 10.0 mi NNW 13.8 mph 18.4 mph N/A   Partly Cloudy
4:15 PM 55.4 °F - 19.4 °F 25% 30.02 in 10.0 mi NNW 16.1 mph 21.9 mph N/A   Clear
4:35 PM 57.2 °F - 19.4 °F 23% 30.02 in 10.0 mi NNW 16.1 mph 25.3 mph N/A   Clear
4:55 PM 55.4 °F - 19.4 °F 25% 30.03 in 10.0 mi North 15.0 mph 24.2 mph N/A   Clear
5:15 PM 55.4 °F - 19.4 °F 25% 30.03 in 10.0 mi NNW 16.1 mph - N/A   Clear
5:35 PM 55.4 °F - 19.4 °F 25% 30.04 in 10.0 mi North 16.1 mph 20.7 mph N/A   Clear
5:55 PM 55.4 °F - 21.2 °F 26% 30.04 in 10.0 mi NNW 11.5 mph - N/A   Clear
6:15 PM 55.4 °F - 21.2 °F 26% 30.04 in 10.0 mi NNW 16.1 mph 25.3 mph N/A   Clear
6:35 PM 53.6 °F - 19.4 °F 26% 30.05 in 10.0 mi NNW 13.8 mph - N/A   Clear
6:55 PM 51.8 °F - 19.4 °F 28% 30.06 in 10.0 mi NNW 9.2 mph - N/A   Clear
7:15 PM 48.2 °F - 19.4 °F 32% 30.07 in 10.0 mi NNW 6.9 mph - N/A   Clear
7:35 PM 46.4 °F 42.9 °F 19.4 °F 34% 30.08 in 10.0 mi North 6.9 mph - N/A   Clear
7:55 PM 44.6 °F 41.4 °F 19.4 °F 37% 30.08 in 10.0 mi North 5.8 mph - N/A   Clear
8:15 PM 41.0 °F 37.1 °F 19.4 °F 42% 30.10 in 10.0 mi North 5.8 mph - N/A   Clear
8:35 PM 37.4 °F 32.1 °F 17.6 °F 45% 30.10 in 10.0 mi NNW 6.9 mph - N/A   Clear
8:55 PM 37.4 °F 31.4 °F 17.6 °F 45% 30.11 in 10.0 mi NNW 8.1 mph - N/A   Clear
9:15 PM 37.4 °F 31.4 °F 17.6 °F 45% 30.12 in 10.0 mi NNW 8.1 mph - N/A   Clear
9:35 PM 35.6 °F 29.2 °F 17.6 °F 48% 30.13 in 10.0 mi NNW 8.1 mph - N/A   Clear
9:55 PM 33.8 °F 27.0 °F 17.6 °F 52% 30.14 in 10.0 mi NW 8.1 mph - N/A   Clear
10:15 PM 35.6 °F 29.2 °F 17.6 °F 48% 30.15 in 10.0 mi NW 8.1 mph - N/A   Clear
10:35 PM 35.6 °F 30.7 °F 17.6 °F 48% 30.16 in 10.0 mi NW 5.8 mph - N/A   Clear
10:55 PM 33.8 °F 29.6 °F 17.6 °F 52% 30.16 in 10.0 mi NW 4.6 mph - N/A   Clear
11:15 PM 32.0 °F 25.6 °F 17.6 °F 55% 30.16 in 10.0 mi WNW 6.9 mph - N/A   Clear
11:35 PM 32.0 °F 25.6 °F 17.6 °F 55% 30.17 in 10.0 mi West 6.9 mph - N/A   Clear
11:55 PM 32.0 °F 24.2 °F 17.6 °F 55% 30.17 in 10.0 mi NW 9.2 mph - N/A   Partly Cloudy